Fayetteville, NC

2:59 PM EDT on August 21, 2017 (GMT -0400)
Fayetteville Regional-Grannis

Weather History for KFAY - May, 2013

Change the Weather History Date:

Thursday, May 23, 2013

  Actual Average Record
Temperature  
Mean Temperature 77 °F 73 °F  
Max Temperature 87 °F 84 °F 102 °F (1941)
Min Temperature 67 °F 61 °F 44 °F (1954)
Degree Days  
Heating Degree Days 0 0  
Month to date heating degree days 34 23  
Since 1 July heating degree days 2760 2730  
Cooling Degree Days 12 8  
Month to date cooling degree days 133 128  
Year to date cooling degree days 204 211  
Growing Degree Days 26 (Base 50)    
Moisture  
Dew Point 68 °F    
Average Humidity 74    
Maximum Humidity 100    
Minimum Humidity 48    
Precipitation  
Precipitation 0.46 in 0.11 in 1.96 in (2010)
Month to date precipitation 1.98 2.14  
Year to date precipitation 13.34 14.57  
Sea Level Pressure  
Sea Level Pressure 29.89 in    
Wind  
Wind Speed 5 mph (SSW)    
Max Wind Speed 20 mph    
Max Gust Speed 24 mph    
Visibility 7 miles    
Events Fog , Rain    
T = Trace of Precipitation, MM = Missing Value Source: NWS Daily Summary

Daily Weather History Graph

Daily Weather History Graph

Search for Another Location

Airport or City:

Trip Planner

Search our weather history database for the weather conditions in past years. The results will help you decide how hot, cold, wet, or windy it might be!

Date:

Astronomy

May. 23, 2013 Rise Set
Actual Time 6:06 AM EDT 8:18 PM EDT
Civil Twilight 5:37 AM EDT 8:47 PM EDT
Nautical Twilight 5:02 AM EDT 9:22 PM EDT
Astronomical Twilight 4:25 AM EDT 10:00 PM EDT
Moon 6:51 PM EDT (5/23) 4:46 AM EDT (5/23)
Length of Visible Light 15h 09m
Length of Day
14h 11m
Waxing Gibbous, 97% of the Moon is Illuminated
May 23
Waxing Gibbous
May 25
Full
May 31
Last Quarter
Jun 8
New
Jun 16
First Quarter

Hourly Weather History & Observations

Time (EDT) Temp. Heat Index Dew Point Humidity Pressure Visibility Wind Dir Wind Speed Gust Speed Precip Events Conditions
12:49 AM 69.8 °F - 68.0 °F 94% 29.97 in 10.0 mi South 6.9 mph - N/A   Partly Cloudy
12:53 AM 70.0 °F - 68.0 °F 93% 29.96 in 10.0 mi South 6.9 mph - N/A   Clear
1:53 AM 70.0 °F - 68.0 °F 93% 29.94 in 10.0 mi South 3.5 mph - N/A   Clear
2:36 AM 69.8 °F - 68.0 °F 94% 29.96 in 10.0 mi Calm Calm - N/A   Mostly Cloudy
2:53 AM 70.0 °F - 68.0 °F 93% 29.94 in 10.0 mi Calm Calm - N/A   Overcast
3:50 AM 69.8 °F - 68.0 °F 94% 29.95 in 9.0 mi Calm Calm - N/A   Overcast
3:53 AM 69.1 °F - 68.0 °F 96% 29.94 in 9.0 mi Calm Calm - N/A   Overcast
4:53 AM 70.0 °F - 68.0 °F 93% 29.94 in 6.0 mi SSW 3.5 mph - N/A   Overcast
5:53 AM 70.0 °F - 69.1 °F 97% 29.94 in 8.0 mi SW 5.8 mph - N/A   Overcast
6:00 AM 69.8 °F - 69.8 °F 100% 29.96 in 9.0 mi SW 4.6 mph - N/A   Overcast
6:43 AM 69.8 °F - 69.8 °F 100% 29.96 in 9.0 mi SSW 4.6 mph - N/A   Mostly Cloudy
6:50 AM 69.8 °F - 68.0 °F 94% 29.96 in 8.0 mi South 3.5 mph - N/A   Scattered Clouds
6:53 AM 70.0 °F - 68.0 °F 93% 29.95 in 8.0 mi South 3.5 mph - N/A   Scattered Clouds
7:53 AM 72.0 °F - 69.1 °F 91% 29.94 in 10.0 mi SW 5.8 mph - N/A   Partly Cloudy
8:32 AM 73.4 °F - 69.8 °F 88% 29.96 in 10.0 mi SW 8.1 mph - N/A   Mostly Cloudy
8:53 AM 73.9 °F - 68.0 °F 82% 29.93 in 10.0 mi SSW 9.2 mph - 0.01 in   Mostly Cloudy
9:07 AM 75.2 °F - 68.0 °F 78% 29.94 in 10.0 mi SSW 9.2 mph - N/A   Scattered Clouds
9:31 AM 77.0 °F - 68.0 °F 74% 29.94 in 10.0 mi SSW 8.1 mph - N/A   Mostly Cloudy
9:53 AM 77.0 °F - 66.9 °F 71% 29.92 in 10.0 mi WSW 4.6 mph - N/A   Scattered Clouds
10:53 AM 79.0 °F - 66.0 °F 64% 29.91 in 10.0 mi Variable 5.8 mph - N/A   Scattered Clouds
11:53 AM 80.1 °F 82.1 °F 66.0 °F 62% 29.91 in 10.0 mi SSW 5.8 mph - N/A   Scattered Clouds
12:53 PM 82.9 °F 84.6 °F 64.9 °F 54% 29.88 in 10.0 mi Calm Calm - N/A   Mostly Cloudy
1:53 PM 82.9 °F 84.6 °F 64.9 °F 54% 29.86 in 10.0 mi SE 8.1 mph - N/A   Mostly Cloudy
2:53 PM 86.0 °F 87.6 °F 64.9 °F 49% 29.83 in 10.0 mi South 10.4 mph - N/A   Partly Cloudy
3:35 PM 73.4 °F - 69.8 °F 88% 29.86 in 1.8 mi WNW 17.3 mph - 0.08 in Rain Heavy Rain
3:45 PM 71.6 °F - 68.0 °F 88% 29.86 in 0.8 mi NW 8.1 mph - 0.31 in Rain Heavy Rain
3:53 PM 71.1 °F - 69.1 °F 93% 29.85 in 1.0 mi North 8.1 mph - 0.39 in Rain Rain
3:56 PM 71.6 °F - 69.8 °F 94% 29.87 in 2.0 mi NNW 5.8 mph - 0.00 in Rain Light Rain
4:03 PM 71.6 °F - 69.8 °F 94% 29.87 in 10.0 mi NW 4.6 mph - 0.00 in   Mostly Cloudy
4:53 PM 71.1 °F - 69.1 °F 93% 29.86 in 5.0 mi South 5.8 mph - 0.04 in Rain Light Rain
5:53 PM 72.0 °F - 69.1 °F 91% 29.84 in 10.0 mi South 8.1 mph - 0.01 in   Mostly Cloudy
6:42 PM 73.4 °F - 69.8 °F 88% 29.86 in 10.0 mi South 5.8 mph - N/A   Scattered Clouds
6:53 PM 73.0 °F - 70.0 °F 90% 29.84 in 10.0 mi South 5.8 mph - N/A   Scattered Clouds
7:53 PM 72.0 °F - 69.1 °F 91% 29.83 in 10.0 mi SE 3.5 mph - N/A   Partly Cloudy
8:53 PM 71.1 °F - 69.1 °F 93% 29.84 in 9.0 mi SSE 6.9 mph - N/A   Clear
9:35 PM 69.8 °F - 68.0 °F 94% 29.85 in 8.0 mi SSE 3.5 mph - N/A   Partly Cloudy
9:53 PM 70.0 °F - 68.0 °F 93% 29.83 in 7.0 mi SSE 3.5 mph - N/A   Scattered Clouds
10:53 PM 69.1 °F - 66.9 °F 93% 29.85 in 6.0 mi Calm Calm - N/A   Partly Cloudy
11:05 PM 68.0 °F - 66.2 °F 94% 29.86 in 1.5 mi Calm Calm - N/A   Partly Cloudy
11:08 PM 68.0 °F - 66.2 °F 94% 29.85 in 0.8 mi Calm Calm - N/A   Mist
11:16 PM 68.0 °F - 66.2 °F 94% 29.85 in 1.5 mi Calm Calm - N/A   Partly Cloudy
11:19 PM 68.0 °F - 66.2 °F 94% 29.85 in 4.0 mi Calm Calm - N/A   Partly Cloudy
11:35 PM 68.0 °F - 66.2 °F 94% 29.85 in 1.2 mi SSW 3.5 mph - N/A   Clear
11:40 PM 66.2 °F - 66.2 °F 100% 29.85 in 0.2 mi SSW 3.5 mph - N/A Fog Fog
11:51 PM 66.2 °F - 66.2 °F 100% 29.85 in 1.0 mi SSW 4.6 mph - N/A   Mist
11:52 PM 66.9 °F - 66.0 °F 97% 29.83 in 1.0 mi SSW 4.6 mph - N/A   Mist
11:57 PM 68.0 °F - 66.2 °F 94% 29.85 in 2.0 mi SW 4.6 mph - N/A   Scattered Clouds